Guam Agana, GU

12:54 PM ChST on October 24, 2019 (GMT +1000)
Guam International

Weather History for PGUM - August, 2019

Change the Weather History Date:

Thursday, August 29, 2019

  Actual Average Record
Temperature  
Mean Temperature 84 °F -  
Max Temperature 88 °F 84 °F 91 °F (2014)
Min Temperature 79 °F 75 °F 73 °F (2004)
Cooling Degree Days 18    
Growing Degree Days 34 (Base 50)    
Moisture  
Dew Point 76 °F    
Average Humidity 80    
Maximum Humidity 90    
Minimum Humidity 65    
Precipitation  
Precipitation 0.39 in - - ()
Sea Level Pressure  
Sea Level Pressure 29.80 in    
Wind  
Wind Speed 8 mph ()    
Max Wind Speed 17 mph    
Max Gust Speed 18 mph    
Visibility 9.0 miles    
Events Fog , Rain    
Averages and records for this station are not official NWS values.
T = Trace of Precipitation, MM = Missing Value Source: Averaged Metar Reports

Daily Weather History Graph

Daily Weather History Graph

Search for Another Location

Airport or City:

Astronomy

Aug. 29, 2019 Rise Set
Actual Time 6:09 AM ChST 6:34 PM ChST
Civil Twilight 5:47 AM ChST 6:56 PM ChST
Nautical Twilight 5:22 AM ChST 7:21 PM ChST
Astronomical Twilight 4:56 AM ChST 7:46 PM ChST
Moon 4:34 AM ChST (8/29) 5:41 PM ChST (8/29)
Length of Visible Light 13h 08m
Length of Day
12h 25m
Waning Crescent, 3% of the Moon is Illuminated
Aug 29
Waning Crescent
Aug 30
New
Sep 6
First Quarter
Sep 14
Full
Sep 22
Last Quarter

Hourly Weather History & Observations

Time (ChST) Temp. Heat Index Dew Point Humidity Pressure Visibility Wind Dir Wind Speed Gust Speed Precip Events Conditions
12:54 AM 80.1 °F 85.4 °F 75.9 °F 87% 29.83 in 10.0 mi ENE 5.8 mph - N/A   Clear
1:54 AM 80.1 °F 85.4 °F 75.9 °F 87% 29.82 in 10.0 mi ENE 5.8 mph - N/A   Clear
2:54 AM 79.0 °F - 75.9 °F 90% 29.80 in 10.0 mi NE 6.9 mph - N/A   Clear
3:54 AM 81.0 °F 87.9 °F 77.0 °F 88% 29.79 in 10.0 mi ENE 6.9 mph - N/A   Partly Cloudy
4:54 AM 81.0 °F 87.3 °F 75.9 °F 85% 29.79 in 10.0 mi East 6.9 mph - N/A   Clear
5:54 AM 80.1 °F 85.8 °F 77.0 °F 90% 29.80 in 10.0 mi East 5.8 mph - 0.00 in   Partly Cloudy
6:54 AM 81.0 °F 87.3 °F 75.9 °F 85% 29.82 in 6.0 mi East 5.8 mph - 0.01 in Rain Light Rain
7:18 AM 82.0 °F 91.0 °F 78.1 °F 88% 29.84 in 10.0 mi ENE 5.8 mph - 0.01 in   Mostly Cloudy
7:54 AM 82.0 °F 90.2 °F 77.0 °F 85% 29.83 in 6.0 mi ENE 9.2 mph - 0.01 in Rain Light Rain
8:54 AM 84.9 °F 96.6 °F 78.1 °F 80% 29.82 in 10.0 mi East 13.8 mph 18.4 mph 0.00 in   Partly Cloudy
9:54 AM 84.9 °F 95.3 °F 77.0 °F 77% 29.82 in 10.0 mi East 13.8 mph - 0.00 in   Partly Cloudy
10:54 AM 87.1 °F 98.8 °F 77.0 °F 72% 29.81 in 10.0 mi East 17.3 mph - N/A   Mostly Cloudy
11:54 AM 87.1 °F 97.3 °F 75.9 °F 69% 29.80 in 10.0 mi East 16.1 mph - N/A   Partly Cloudy
12:22 PM 87.1 °F 98.8 °F 77.0 °F 72% 29.81 in 10.0 mi ESE 12.7 mph - N/A   Mostly Cloudy
12:36 PM 88.0 °F 100.2 °F 77.0 °F 70% 29.80 in 10.0 mi East 17.3 mph - N/A   Scattered Clouds
12:54 PM 88.0 °F 98.5 °F 75.9 °F 67% 29.77 in 10.0 mi East 16.1 mph - N/A   Scattered Clouds
1:25 PM 88.0 °F 98.5 °F 75.9 °F 67% 29.79 in 10.0 mi East 15.0 mph - N/A   Scattered Clouds
1:54 PM 88.0 °F 98.5 °F 75.9 °F 67% 29.76 in 10.0 mi East 12.7 mph - N/A   Partly Cloudy
2:36 PM 87.1 °F 98.8 °F 77.0 °F 72% 29.78 in 10.0 mi ESE 12.7 mph - N/A   Mostly Cloudy
2:54 PM 88.0 °F 97.5 °F 75.0 °F 65% 29.75 in 10.0 mi East 13.8 mph - N/A   Scattered Clouds
3:54 PM 86.0 °F 96.0 °F 75.9 °F 72% 29.74 in 10.0 mi ESE 12.7 mph - N/A   Scattered Clouds
4:18 PM 86.0 °F 96.0 °F 75.9 °F 72% 29.77 in 10.0 mi ESE 9.2 mph - N/A   Scattered Clouds
4:27 PM 86.0 °F 96.0 °F 75.9 °F 72% 29.78 in 10.0 mi ENE 11.5 mph - N/A   Mostly Cloudy
4:47 PM 84.0 °F 91.9 °F 75.0 °F 74% 29.78 in 10.0 mi SE 10.4 mph - N/A   Mostly Cloudy
4:54 PM 82.0 °F 88.6 °F 75.0 °F 79% 29.76 in 10.0 mi South 10.4 mph - N/A   Mostly Cloudy
5:12 PM 79.0 °F - 75.9 °F 90% 29.79 in 0.5 mi Calm Calm - 0.21 in Fog , Rain Heavy Rain
5:20 PM 80.1 °F 85.4 °F 75.9 °F 87% 29.80 in 3.0 mi Calm Calm - 0.24 in Rain Light Rain
5:39 PM 80.1 °F 85.4 °F 75.9 °F 87% 29.80 in 10.0 mi Calm Calm - 0.24 in   Scattered Clouds
5:54 PM 81.0 °F 87.3 °F 75.9 °F 85% 29.78 in 10.0 mi Calm Calm - 0.24 in   Scattered Clouds
6:11 PM 81.0 °F 87.9 °F 77.0 °F 88% 29.80 in 2.5 mi South 3.5 mph - 0.01 in Rain Heavy Rain
6:18 PM 81.0 °F 87.9 °F 77.0 °F 88% 29.80 in 3.0 mi ENE 3.5 mph - 0.02 in Rain Light Rain
6:54 PM 82.0 °F 90.2 °F 77.0 °F 85% 29.79 in 10.0 mi East 5.8 mph - 0.03 in   Partly Cloudy
7:54 PM 80.1 °F 85.1 °F 75.0 °F 85% 29.81 in 10.0 mi ENE 10.4 mph - 0.10 in   Scattered Clouds
8:54 PM 81.0 °F 87.3 °F 75.9 °F 85% 29.83 in 10.0 mi ENE 6.9 mph - N/A   Clear
9:54 PM 81.0 °F 87.3 °F 75.9 °F 85% 29.83 in 10.0 mi East 5.8 mph - N/A   Clear
10:54 PM 81.0 °F 87.9 °F 77.0 °F 88% 29.83 in 10.0 mi East 5.8 mph - N/A   Clear
11:15 PM 81.0 °F 87.3 °F 75.9 °F 85% 29.85 in 10.0 mi East 5.8 mph - N/A   Partly Cloudy
11:54 PM 81.0 °F 87.9 °F 77.0 °F 88% 29.82 in 10.0 mi ENE 5.8 mph - N/A   Clear